Location: Les Thiberg�res
(47.8554°N, 1.0978°W)
Time: 00:26:23
(UTC+00:00)

Cosmos 2221 - Visible Passes

Search period start: 07 July 2020 00:00
Search period end: 17 July 2020 00:00
Orbit: 594 x 615 km, 82.5° (Epoch: 06 July)

Date Brightness Start Highest point End Pass type
(mag) Time Alt. Az. Time Alt. Az. Time Alt. Az.
07 Jul 3.3 21:20:46 10° N 21:24:52 37° ENE 21:28:00 15° SE visible
07 Jul 4.4 22:58:45 10° NW 23:02:12 23° W 23:04:51 14° SW visible
08 Jul 2.7 21:33:20 10° N 21:37:40 60° ENE 21:40:47 18° SSE visible
08 Jul 5.0 23:12:15 10° NW 23:14:43 15° W 23:17:09 10° WSW visible
09 Jul 2.5 21:46:01 10° N 21:50:25 85° W 21:53:34 18° S visible
10 Jul 3.2 21:58:50 10° NNW 22:03:06 52° W 22:06:23 16° SSW visible
11 Jul 4.0 22:11:49 10° NNW 22:15:42 32° W 22:19:13 12° SSW visible
12 Jul 3.2 20:46:50 10° N 20:50:59 41° ENE 20:55:05 10° SE visible
12 Jul 4.7 22:25:00 10° NW 22:28:15 21° W 22:31:29 10° SW visible
13 Jul 2.6 20:59:25 10° N 21:03:47 66° E 21:08:04 10° SSE visible
13 Jul 5.1 22:38:39 10° NW 22:40:45 13° W 22:42:50 10° WSW visible
14 Jul 2.7 21:12:08 10° NNW 21:16:30 77° W 21:20:49 10° S visible
15 Jul 3.4 21:24:59 10° NNW 21:29:10 46° W 21:33:18 10° SSW visible
16 Jul 4.3 21:38:00 10° NNW 21:41:46 29° W 21:45:30 10° SSW visible
